Manhattan, KS

12:16 PM CDT on April 26, 2017 (GMT -0500)
Manhattan Regional

Weather History for KMHK - January, 2013

Change the Weather History Date:

Wednesday, January 9, 2013

  Actual Average Record
Temperature  
Mean Temperature 39 °F 28 °F  
Max Temperature 57 °F 40 °F 64 °F (2002)
Min Temperature 21 °F 16 °F 0 °F (1999)
Degree Days  
Heating Degree Days 26 37  
Month to date heating degree days 317 333  
Since 1 July heating degree days 2238 2474  
Cooling Degree Days 0 0  
Month to date cooling degree days 0 0  
Year to date cooling degree days 0 0  
Moisture  
Dew Point 27 °F    
Average Humidity 69    
Maximum Humidity 96    
Minimum Humidity 41    
Precipitation  
Precipitation 0.00 in 0.01 in 0.07 in (2011)
Month to date precipitation T 0.09  
Year to date precipitation T 0.09  
Sea Level Pressure  
Sea Level Pressure 30.37 in    
Wind  
Wind Speed 0 mph (SE)    
Max Wind Speed 13 mph    
Max Gust Speed 15 mph    
Visibility 9 miles    
Events      
T = Trace of Precipitation, MM = Missing Value Source: NWS Daily Summary

Daily Weather History Graph

Daily Weather History Graph

Search for Another Location

Airport or City:

Trip Planner

Search our weather history database for the weather conditions in past years. The results will help you decide how hot, cold, wet, or windy it might be!

Date:

Astronomy

Jan. 09, 2013 Rise Set
Actual Time 7:45 AM CST 5:22 PM CST
Civil Twilight 7:16 AM CST 5:51 PM CST
Nautical Twilight 6:43 AM CST 6:25 PM CST
Astronomical Twilight 6:10 AM CST 6:57 PM CST
Moon 5:26 AM CST (1/9) 3:25 PM CST (1/9)
Length of Visible Light 10h 35m
Length of Day
9h 36m
Waning Crescent, 6% of the Moon is Illuminated
Jan 9
Waning Crescent
Jan 11
New
Jan 18
First Quarter
Jan 26
Full
Feb 3
Last Quarter

Hourly Weather History & Observations

Time (CST) Temp. Windchill Dew Point Humidity Pressure Visibility Wind Dir Wind Speed Gust Speed Precip Events Conditions
12:52 AM 25.0 °F - 23.0 °F 92% 30.24 in 9.0 mi Calm Calm - N/A   Clear
1:52 AM 25.0 °F - 21.9 °F 88% 30.27 in 8.0 mi Calm Calm - N/A   Clear
2:52 AM 26.1 °F - 21.9 °F 84% 30.30 in 9.0 mi Calm Calm - N/A   Clear
3:52 AM 25.0 °F - 21.9 °F 88% 30.32 in 7.0 mi Calm Calm - N/A   Clear
4:52 AM 25.0 °F - 21.9 °F 88% 30.32 in 7.0 mi Calm Calm - N/A   Clear
5:52 AM 24.1 °F - 21.0 °F 88% 30.33 in 7.0 mi Calm Calm - N/A   Clear
6:52 AM 23.0 °F - 21.0 °F 92% 30.37 in 6.0 mi Calm Calm - N/A   Clear
7:52 AM 23.0 °F - 21.0 °F 92% 30.41 in 6.0 mi Calm Calm - N/A   Clear
8:52 AM 28.0 °F 24.2 °F 25.0 °F 88% 30.46 in 6.0 mi WSW 3.5 mph - N/A   Clear
9:52 AM 32.0 °F - 28.0 °F 85% 30.47 in 7.0 mi Calm Calm - N/A   Clear
10:52 AM 37.4 °F - 30.2 °F 75% 30.44 in 9.0 mi Calm Calm - N/A   Clear
11:52 AM 45.0 °F - 32.0 °F 60% 30.42 in 10.0 mi Calm Calm - N/A   Clear
12:52 PM 48.9 °F - 30.9 °F 50% 30.39 in 10.0 mi Calm Calm - N/A   Clear
1:52 PM 54.0 °F - 32.0 °F 43% 30.38 in 10.0 mi Calm Calm - N/A   Clear
2:52 PM 55.9 °F - 32.0 °F 40% 30.38 in 10.0 mi SE 3.5 mph - N/A   Clear
3:52 PM 55.9 °F - 32.0 °F 40% 30.38 in 10.0 mi Calm Calm - N/A   Clear
4:52 PM 51.1 °F - 32.0 °F 48% 30.38 in 10.0 mi Calm Calm - N/A   Clear
5:52 PM 45.0 °F - 30.9 °F 58% 30.38 in 10.0 mi Calm Calm - N/A   Clear
6:52 PM 41.0 °F - 30.0 °F 65% 30.40 in 10.0 mi Calm Calm - N/A   Clear
7:52 PM 36.0 °F - 28.0 °F 73% 30.38 in 10.0 mi Calm Calm - N/A   Clear
8:52 PM 39.0 °F - 30.0 °F 70% 30.38 in 10.0 mi Calm Calm - N/A   Clear
9:52 PM 33.1 °F - 28.0 °F 82% 30.38 in 10.0 mi Calm Calm - N/A   Clear
10:52 PM 34.0 °F - 28.0 °F 79% 30.36 in 10.0 mi Calm Calm - N/A   Clear
11:52 PM 39.0 °F 36.8 °F 30.9 °F 73% 30.33 in 10.0 mi ENE 3.5 mph - N/A   Clear